[[{"header":{"parameterUnit":"m.s-1","parameterCategory":1,"la1":30.2991,"la2":30.254,"lo1":-89.0895,"lo2":-89.0444,"dy":0.0017,"dx":0.0017,"nx":28,"ny":28,"refTime":"2025-02-11T09:00:00:Z","depth":0,"parameterNumber":2,"parameterNumberName":"U-component_of_WINDS"},"data":[0,0,0,0,0,0,0,0,0,0,0,0,0,0,0,0,0,0,0,0,0,0,0,0,0,0,0,0,0,0,0,0,0,0,0,0,0,0,0,0,0,0,0,0,0,0,0,0,0,0,0,0,0,0,0,0,0,0,-2.9057,-2.9056,0,-2.8988,-2.8987,-2.8986,-2.8894,-2.8892,-2.8891,-2.8889,-2.8819,-2.8818,-2.8818,0,0,0,0,0,0,0,0,0,0,0,0,0,-2.9108,-2.9108,-2.9057,-2.9056,-2.9055,-2.8988,-2.8987,-2.8986,-2.8894,-2.8892,-2.889,-2.8888,-2.8819,-2.8818,-2.8818,0,0,0,0,0,0,0,0,0,0,0,0,0,-2.9067,-2.9108,-2.9057,-2.9001,-2.8995,-2.8988,-2.8987,-2.8986,-2.8894,-2.8892,-2.889,-2.8888,-2.8819,-2.8818,-2.8818,-2.886,0,0,-2.8815,-2.8815,0,0,0,0,0,0,0,0,-2.907,-2.9066,-2.901,-2.9005,-2.8998,-2.8947,-2.8979,-2.8943,-2.8895,-2.8933,-2.8889,-2.8886,-2.8863,-2.8859,-2.8851,-2.8856,-2.8853,-2.8815,-2.8815,-2.8815,-2.8815,0,0,0,0,0,0,0,-2.9073,-2.9068,-2.9029,-2.9009,-2.9002,-2.8979,-2.8971,-2.8972,-2.8912,-2.8929,-2.8922,-2.8915,-2.8859,-2.8852,-2.8848,-2.8852,-2.8815,-2.8815,-2.8814,-2.8814,-2.8887,-2.8889,0,0,0,0,0,0,-2.9084,-2.9071,-2.9032,-2.9027,-2.9029,-2.898,-2.8971,-2.8966,-2.8911,-2.8901,-2.8917,-2.8911,-2.8854,-2.8849,-2.8846,-2.8889,-2.8815,-2.8814,-2.8814,-2.8884,-2.8887,-2.889,0,0,0,0,0,0,-2.9085,-2.9081,-2.9034,-2.9047,-2.904,-2.8982,-2.8977,-2.8966,-2.8958,-2.8903,-2.8891,-2.8921,-2.8852,-2.8847,-2.8856,-2.8886,-2.8814,-2.8813,-2.8882,-2.8885,-2.8889,-2.8979,0,0,0,0,0,0,-2.9087,-2.9082,-2.9098,-2.9048,-2.9039,-2.9047,-2.8979,-2.8966,-2.8957,-2.8948,-2.8902,-2.8893,-2.885,-2.8858,-2.8856,-2.8884,-2.8813,-2.8879,-2.8883,-2.8887,-2.8973,-2.8985,-2.8996,0,0,0,0,0,-2.909,-2.9127,-2.9099,-2.9095,-2.9058,-2.9049,-2.9043,-2.8993,-2.896,-2.8974,-2.8939,-2.8894,-2.8883,-2.886,-2.8856,-2.8885,-2.8877,-2.8882,-2.8887,-2.8968,-2.8983,-2.8995,0,0,0,0,0,0,-2.9182,-2.9119,-2.9088,-2.911,-2.9086,-2.9033,-2.905,-2.9011,-2.8995,-2.8988,-2.8926,-2.8917,-2.8934,-2.891,-2.8885,-2.8922,-2.8873,-2.8878,-2.8936,-2.895,-2.8961,-2.8965,-2.8812,0,0,0,0,0,-2.9205,-2.9203,-2.9148,-2.9173,-2.9162,-2.9109,-2.9103,-2.9067,-2.9038,-2.9027,-2.8992,-2.8967,-2.8957,-2.8952,-2.8941,-2.897,-2.8958,-2.8988,-2.8999,-2.9008,-2.9013,-2.9025,-2.9037,-2.8907,-2.8907,-2.8907,0,0,-2.9252,-2.9218,-2.922,-2.9191,-2.9167,-2.9166,-2.9101,-2.9103,-2.9101,-2.9028,-2.9034,-2.9008,-2.8975,-2.8994,-2.9001,-2.8975,-2.9046,-2.9015,-2.9023,-2.9022,-2.9031,-2.9044,-2.9055,-2.8911,-2.891,-2.8909,0,0,-2.9337,-2.9312,-2.9329,-2.9306,-2.9271,-2.9235,-2.924,-2.9193,-2.9173,-2.9178,-2.9123,-2.912,-2.9106,-2.9084,-2.9071,-2.9148,-2.9105,-2.9146,-2.9204,-2.9216,-2.9226,-2.9235,-2.926,-2.927,-2.9151,-2.9151,-2.9151,0,-2.94,-2.9396,-2.9343,-2.9348,-2.9336,-2.9269,-2.9286,-2.9267,-2.923,-2.9223,-2.9195,-2.9174,-2.9148,-2.916,-2.9179,-2.9171,-2.9173,-2.915,-2.9229,-2.9237,-2.9244,-2.9268,-2.9278,-2.9156,-2.9155,-2.9155,-2.9154,0,-2.9475,-2.9473,-2.9491,-2.9457,-2.9447,-2.9458,-2.9405,-2.9402,-2.9367,-2.9334,-2.934,-2.9305,-2.9285,-2.9285,-2.9251,-2.9293,-2.9277,-2.924,-2.919,-2.9263,-2.9284,-2.9293,-2.9163,-2.9161,-2.916,-2.9158,0,0,-2.9615,-2.9551,-2.9558,-2.9541,-2.9497,-2.9495,-2.9503,-2.9482,-2.948,-2.9457,-2.9461,-2.945,-2.9415,-2.94,-2.9363,-2.9374,-2.9434,-2.9335,-2.9333,-2.9353,-2.9476,-2.9503,-2.9514,-2.9407,-2.9408,-2.941,-2.9478,0,-2.9691,-2.97,-2.9651,-2.9673,-2.967,-2.9607,-2.9613,-2.9587,-2.9556,-2.9549,-2.9515,-2.9507,-2.9463,-2.9453,-2.9461,-2.9426,-2.9458,-2.942,-2.9408,-2.9409,-2.9417,-2.9525,-2.9554,-2.962,-2.9486,-2.9487,-2.9488,0,-2.978,-2.9761,-2.9783,-2.9736,-2.9733,-2.974,-2.9717,-2.9711,-2.968,-2.9656,-2.964,-2.9597,-2.96,-2.9554,-2.9557,-2.9532,-2.9524,-2.9506,-2.9507,-2.9503,-2.9452,-2.9522,-2.9641,-2.965,-2.9501,-2.95,-2.9499,0,-2.9878,-2.9859,-2.9868,-2.9856,-2.9803,-2.9809,-2.9787,-2.9753,-2.9744,-2.9724,-2.9717,-2.9698,-2.9687,-2.9673,-2.9625,-2.9596,-2.9633,-2.9583,-2.9613,-2.9614,-2.9622,-2.9622,-2.9739,-2.9621,-2.9621,-2.962,-2.962,0,-2.9967,-2.9982,-2.9911,-2.9917,-2.9932,-2.9876,-2.9892,-2.9864,-2.9834,-2.9833,-2.9778,-2.9778,-2.9716,-2.9708,-2.9671,-2.9678,-2.9674,-2.9655,-2.9644,-2.9659,-2.9661,-2.9651,-2.9645,-2.9623,-2.9622,-2.9622,-2.9621,0,-3.0078,-3.0032,-3.0038,-2.9987,-2.9975,-2.9988,-2.9944,-2.9947,-2.9913,-2.9912,-2.9908,-2.9855,-2.9843,-2.9795,-2.9772,-2.9747,-2.9765,-2.9746,-2.9776,-2.9769,-2.98,-2.9797,-2.9914,-2.9925,-2.9802,-2.9804,-2.9805,0,-3.0137,-3.0146,-3.0097,-3.0092,-3.0072,-3.0066,-3.0055,-3.0001,-2.9993,-2.9957,-2.9964,-2.9948,-2.9932,-2.9916,-2.9875,-2.9857,-2.9836,-2.9878,-2.9833,-2.9846,-2.9834,-2.9833,-2.9833,-2.9887,-2.9889,-2.989,-2.9891,0,-3.0245,-3.0221,-3.0209,-3.0188,-3.0177,-3.0159,-3.0136,-3.0136,-3.0075,-3.0068,-3.0055,-3.0043,-3.0019,-3.0003,-2.9978,-2.9955,-2.9913,-2.9906,-2.9911,-2.9925,-2.9941,-2.9931,-2.98,-2.9903,-2.9902,-2.9901,-2.9901,-2.99,-3.033,-3.0335,-3.0301,-3.0288,-3.0266,-3.0246,-3.0246,-3.0212,-3.02,-3.0176,-3.0145,-3.0136,-3.0103,-3.0065,-3.0045,-3.0036,-3.0013,-3.0021,-3.0023,-3.0026,-3.0032,-2.9944,-3.0032,-3.0032,-3.0031,-3.0031,-3.003,0,-3.0433,-3.0408,-3.0397,-3.0368,-3.0358,-3.0319,-3.0293,-3.0286,-3.0279,-3.0252,-3.0238,-3.0222,-3.0207,-3.0164,-3.0144,-3.0145,-3.0125,-3.0142,-3.014,-3.0135,-3.0055,-3.0051,-3.0158,-3.0158,-3.0158,-3.0158,-3.0158,-3.0158,-3.0486,-3.0492,-3.0465,-3.0459,-3.0433,-3.0424,-3.0411,-3.0393,-3.037,-3.0356,-3.0342,-3.0315,-3.0281,-3.0258,-3.0241,-3.0229,-3.0223,-3.0246,-3.0227,-3.0153,-3.0141,-3.0129,-3.0125,-3.0246,-3.0246,-3.0307,-3.0307,-3.0308]},{"header":{"parameterUnit":"m.s-1","parameterCategory":1,"la1":30.2991,"la2":30.254,"lo1":-89.0895,"lo2":-89.0444,"dy":0.0017,"dx":0.0017,"nx":28,"ny":28,"refTime":"2025-02-11T09:00:00:Z","depth":0,"parameterNumber":3,"parameterNumberName":"V-component_of_WINDS"},"data":[0,0,0,0,0,0,0,0,0,0,0,0,0,0,0,0,0,0,0,0,0,0,0,0,0,0,0,0,0,0,0,0,0,0,0,0,0,0,0,0,0,0,0,0,0,0,0,0,0,0,0,0,0,0,0,0,0,0,-0.9764,-0.9765,0,-0.9812,-0.9813,-0.9813,-0.9844,-0.9844,-0.9844,-0.9844,-0.989,-0.9891,-0.9892,0,0,0,0,0,0,0,0,0,0,0,0,0,-0.9695,-0.9696,-0.9764,-0.9765,-0.9766,-0.9812,-0.9813,-0.9813,-0.9844,-0.9844,-0.9844,-0.9844,-0.989,-0.9891,-0.9892,0,0,0,0,0,0,0,0,0,0,0,0,0,-0.9732,-0.9696,-0.9764,-0.9786,-0.9789,-0.9812,-0.9813,-0.9813,-0.9844,-0.9844,-0.9844,-0.9845,-0.9889,-0.9891,-0.9893,-0.9896,0,0,-0.9897,-0.9898,0,0,0,0,0,0,0,0,-0.973,-0.9734,-0.9783,-0.9785,-0.9788,-0.9822,-0.9805,-0.9841,-0.9844,-0.9823,-0.9844,-0.9845,-0.9867,-0.9871,-0.9879,-0.9898,-0.99,-0.9897,-0.9898,-0.9899,-0.9899,0,0,0,0,0,0,0,-0.9727,-0.9732,-0.9783,-0.9783,-0.9786,-0.9792,-0.9798,-0.9812,-0.9843,-0.9825,-0.9827,-0.9832,-0.9869,-0.9877,-0.988,-0.9901,-0.9897,-0.9899,-0.99,-0.99,-0.9922,-0.9922,0,0,0,0,0,0,-0.9721,-0.973,-0.9782,-0.9785,-0.9759,-0.9793,-0.98,-0.9811,-0.9843,-0.9848,-0.9832,-0.9834,-0.9874,-0.9878,-0.9882,-0.9886,-0.9899,-0.99,-0.9901,-0.9922,-0.9922,-0.9922,0,0,0,0,0,0,-0.972,-0.9726,-0.978,-0.9758,-0.9765,-0.9794,-0.9807,-0.9812,-0.982,-0.9848,-0.9853,-0.9836,-0.9875,-0.988,-0.9892,-0.9888,-0.9901,-0.9903,-0.9923,-0.9922,-0.9922,-0.9896,0,0,0,0,0,0,-0.9718,-0.9725,-0.9728,-0.9758,-0.9766,-0.9791,-0.9806,-0.9812,-0.9823,-0.9826,-0.9853,-0.9858,-0.9875,-0.9889,-0.9893,-0.9891,-0.9904,-0.9923,-0.9923,-0.9922,-0.9897,-0.9894,-0.9892,0,0,0,0,0,-0.9715,-0.9719,-0.9728,-0.9734,-0.9771,-0.979,-0.9795,-0.9816,-0.9823,-0.9825,-0.9842,-0.9857,-0.9888,-0.989,-0.9895,-0.9893,-0.9924,-0.9923,-0.9922,-0.9898,-0.9895,-0.9892,0,0,0,0,0,0,-0.9689,-0.9724,-0.9734,-0.9748,-0.9766,-0.9796,-0.98,-0.9813,-0.9828,-0.983,-0.9854,-0.986,-0.9869,-0.9882,-0.9884,-0.9896,-0.9907,-0.9907,-0.9887,-0.9885,-0.9882,-0.9878,-0.9905,0,0,0,0,0,-0.9685,-0.9698,-0.9728,-0.9737,-0.9746,-0.9771,-0.978,-0.9794,-0.9813,-0.9821,-0.9839,-0.9856,-0.9869,-0.9878,-0.9892,-0.9899,-0.9904,-0.9899,-0.9897,-0.9895,-0.9894,-0.9896,-0.9893,-0.9919,-0.9919,-0.9919,0,0,-0.9676,-0.9697,-0.9704,-0.9732,-0.9748,-0.976,-0.9777,-0.979,-0.9798,-0.9823,-0.9835,-0.9849,-0.9869,-0.9878,-0.9882,-0.9889,-0.9888,-0.9894,-0.9892,-0.9892,-0.9894,-0.9892,-0.989,-0.9918,-0.9919,-0.9919,0,0,-0.9667,-0.9685,-0.9693,-0.9708,-0.9731,-0.9747,-0.9749,-0.9775,-0.9785,-0.9798,-0.9816,-0.9825,-0.9848,-0.9861,-0.9871,-0.9861,-0.9874,-0.9865,-0.9852,-0.9853,-0.9851,-0.9849,-0.9844,-0.9842,-0.9865,-0.9865,-0.9865,0,-0.9653,-0.9673,-0.9696,-0.9707,-0.9717,-0.9739,-0.9747,-0.9759,-0.9785,-0.9791,-0.9798,-0.9825,-0.9841,-0.9851,-0.9848,-0.9856,-0.9857,-0.9862,-0.985,-0.9848,-0.9847,-0.9842,-0.984,-0.9863,-0.9864,-0.9864,-0.9864,0,-0.9654,-0.9667,-0.9671,-0.9695,-0.9706,-0.9715,-0.9737,-0.9745,-0.9757,-0.9771,-0.9782,-0.9801,-0.9817,-0.9821,-0.9834,-0.9832,-0.9835,-0.9845,-0.9857,-0.9843,-0.9838,-0.9836,-0.9861,-0.9862,-0.9862,-0.9863,0,0,-0.9632,-0.9666,-0.9667,-0.9676,-0.9702,-0.9711,-0.9719,-0.9736,-0.9741,-0.9757,-0.9763,-0.978,-0.9789,-0.98,-0.9813,-0.9814,-0.9802,-0.9824,-0.9825,-0.9818,-0.9798,-0.9789,-0.9787,-0.9811,-0.9811,-0.981,-0.9796,0,-0.9625,-0.9643,-0.9661,-0.9671,-0.9682,-0.9701,-0.9708,-0.9722,-0.9735,-0.9745,-0.9758,-0.9769,-0.9781,-0.9787,-0.9789,-0.9804,-0.9799,-0.9805,-0.9814,-0.9814,-0.9808,-0.9785,-0.9777,-0.9762,-0.9795,-0.9794,-0.9794,0,-0.9621,-0.9635,-0.9646,-0.9666,-0.9672,-0.9678,-0.9692,-0.9701,-0.9717,-0.9726,-0.9736,-0.975,-0.9757,-0.9767,-0.9775,-0.9779,-0.9784,-0.9791,-0.9791,-0.9792,-0.9803,-0.9784,-0.9759,-0.9755,-0.9792,-0.9792,-0.9792,0,-0.9601,-0.9623,-0.9631,-0.9639,-0.9664,-0.9667,-0.9677,-0.9693,-0.9701,-0.9713,-0.9717,-0.973,-0.9736,-0.9745,-0.9761,-0.9767,-0.9766,-0.9778,-0.9771,-0.9771,-0.977,-0.977,-0.9744,-0.9775,-0.9775,-0.9775,-0.9775,0,-0.9591,-0.9597,-0.9622,-0.9627,-0.9633,-0.9652,-0.9656,-0.9668,-0.9682,-0.9687,-0.9705,-0.971,-0.9731,-0.9738,-0.975,-0.9753,-0.9756,-0.9762,-0.9765,-0.976,-0.9759,-0.9763,-0.9763,-0.9775,-0.9775,-0.9775,-0.9775,0,-0.9571,-0.9589,-0.9598,-0.962,-0.9625,-0.9628,-0.9646,-0.965,-0.9662,-0.9669,-0.9672,-0.9691,-0.9699,-0.9716,-0.9729,-0.9737,-0.9736,-0.9743,-0.9731,-0.9733,-0.9724,-0.9724,-0.9699,-0.9695,-0.973,-0.973,-0.973,0,-0.9563,-0.9568,-0.9589,-0.9594,-0.9603,-0.9612,-0.9619,-0.9637,-0.9643,-0.9659,-0.966,-0.967,-0.9678,-0.969,-0.9704,-0.9713,-0.9719,-0.9709,-0.972,-0.9713,-0.9716,-0.9715,-0.9714,-0.9706,-0.9706,-0.9705,-0.9705,0,-0.9547,-0.9555,-0.9565,-0.9576,-0.9584,-0.9594,-0.9605,-0.9607,-0.9628,-0.9633,-0.9642,-0.9648,-0.966,-0.9668,-0.9678,-0.9687,-0.9698,-0.9701,-0.97,-0.9694,-0.9686,-0.9688,-0.9723,-0.9702,-0.9702,-0.9702,-0.9703,-0.9703,-0.9532,-0.9535,-0.955,-0.9559,-0.9568,-0.9577,-0.9581,-0.9593,-0.96,-0.9611,-0.9621,-0.9628,-0.9639,-0.9654,-0.9661,-0.9665,-0.9671,-0.967,-0.9669,-0.9668,-0.9665,-0.9686,-0.9667,-0.9668,-0.9668,-0.9668,-0.9668,0,-0.9515,-0.9524,-0.9533,-0.9546,-0.9552,-0.9562,-0.9574,-0.9578,-0.9583,-0.9593,-0.9601,-0.9608,-0.9615,-0.9628,-0.9635,-0.9635,-0.964,-0.9637,-0.9636,-0.9637,-0.966,-0.966,-0.9632,-0.9632,-0.9632,-0.9632,-0.9632,-0.9632,-0.9507,-0.9512,-0.952,-0.9529,-0.9538,-0.9544,-0.9549,-0.9556,-0.9564,-0.9571,-0.9577,-0.9585,-0.9595,-0.9603,-0.9608,-0.9612,-0.9613,-0.9607,-0.9612,-0.9633,-0.9636,-0.9639,-0.9639,-0.9607,-0.9607,-0.9588,-0.9588,-0.9588]}]]